TimeCDT,TemperatureF,Dew PointF,Humidity,Sea Level PressureIn,VisibilityMPH,Wind Direction,Wind SpeedMPH,Gust SpeedMPH,PrecipitationIn,Events,Conditions,WindDirDegrees,DateUTC
12:58 AM,74.8,67.8,79,29.98,10.0,ENE,6.9,-,N/A,,Clear,70,2013-06-18 05:58:00
1:58 AM,73.8,68.7,84,29.95,10.0,East,5.8,-,N/A,,Clear,80,2013-06-18 06:58:00
2:58 AM,72.3,69.6,91,29.96,10.0,SE,3.5,-,N/A,,Clear,140,2013-06-18 07:58:00
3:08 AM,71.6,69.8,94,30.00,9.0,SE,4.6,-,N/A,,Clear,140,2013-06-18 08:08:00
3:13 AM,71.6,69.8,94,30.00,10.0,SSE,6.9,-,N/A,,Clear,150,2013-06-18 08:13:00
3:58 AM,71.4,68.5,91,30.00,10.0,South,4.6,-,N/A,,Clear,170,2013-06-18 08:58:00
4:58 AM,70.0,70.0,100,29.97,10.0,ENE,4.6,-,N/A,,Clear,60,2013-06-18 09:58:00
5:58 AM,68.7,68.7,100,29.98,10.0,North,5.8,-,N/A,,Clear,10,2013-06-18 10:58:00
6:58 AM,68.9,68.9,100,30.00,10.0,NNE,6.9,-,N/A,,Clear,30,2013-06-18 11:58:00
7:58 AM,71.1,70.2,97,30.01,10.0,NNE,8.1,-,N/A,,Clear,20,2013-06-18 12:58:00
8:58 AM,73.2,68.2,84,30.02,10.0,NE,4.6,-,N/A,,Clear,50,2013-06-18 13:58:00
9:58 AM,75.6,65.5,71,30.02,10.0,NNE,5.8,-,N/A,,Clear,30,2013-06-18 14:58:00
10:58 AM,79.2,64.8,61,30.02,10.0,Variable,2.3,-,N/A,,Clear,0,2013-06-18 15:58:00
11:58 AM,81.5,63.3,54,30.02,10.0,Variable,2.3,-,N/A,,Clear,0,2013-06-18 16:58:00
12:58 PM,84.4,60.1,44,30.00,10.0,Variable,1.2,-,N/A,,Clear,0,2013-06-18 17:58:00
1:58 PM,86.4,60.8,42,29.99,10.0,East,8.1,-,N/A,,Clear,90,2013-06-18 18:58:00
2:58 PM,87.4,60.3,40,29.96,10.0,East,8.1,-,N/A,,Clear,90,2013-06-18 19:58:00
3:58 PM,89.1,58.6,36,29.95,10.0,Variable,4.6,-,N/A,,Clear,0,2013-06-18 20:58:00
4:58 PM,89.2,61.7,40,29.93,10.0,ESE,10.4,-,N/A,,Partly Cloudy,110,2013-06-18 21:58:00
5:53 PM,89.6,62.6,40,29.96,10.0,ESE,8.1,17.3,N/A,,Mostly Cloudy,120,2013-06-18 22:53:00
5:58 PM,89.4,61.9,40,29.91,10.0,ESE,15.0,19.6,N/A,,Mostly Cloudy,110,2013-06-18 22:58:00
6:03 PM,87.8,62.6,43,29.95,10.0,East,11.5,19.6,N/A,,Scattered Clouds,100,2013-06-18 23:03:00
6:18 PM,87.8,60.8,40,29.95,10.0,SE,10.4,-,N/A,,Mostly Cloudy,130,2013-06-18 23:18:00
6:28 PM,87.8,62.6,43,29.95,10.0,ESE,9.2,-,N/A,,Scattered Clouds,120,2013-06-18 23:28:00
6:58 PM,87.4,61.7,42,29.91,10.0,SE,12.7,-,N/A,,Clear,130,2013-06-18 23:58:00
7:58 PM,84.9,63.9,49,29.90,10.0,SE,12.7,-,N/A,,Clear,130,2013-06-19 00:58:00
8:58 PM,81.0,64.9,58,29.91,10.0,SE,10.4,-,N/A,,Clear,130,2013-06-19 01:58:00
9:58 PM,78.1,66.4,67,29.92,10.0,ESE,9.2,-,N/A,,Clear,120,2013-06-19 02:58:00
10:58 PM,75.9,66.6,73,29.94,10.0,ESE,9.2,-,N/A,,Clear,110,2013-06-19 03:58:00
11:58 PM,73.9,66.9,79,29.95,10.0,ESE,10.4,-,N/A,,Clear,120,2013-06-19 04:58:00